Theta_e
319 320 320 320 320 320 320 319 320 320 320 319 320 320 321 321 321 322 322 323 327 328 329 331 334 337 333 324 343 344 337 343 342 341 340 337 341 338 337 336 335 335 331 326
320 320 320 320 319 320 320 320 320 319 319 319 321 321 321 322 322 324 326 327 328 329 330 331 332 332 339 339 333 345 340 340 342 345 345 341 340 344 337 335 336 336 329 326
321 320 320 319 319 319 320 319 319 319 321 321 321 322 322 323 325 326 327 328 330 331 332 333 334 337 339 340 341 337 346 347 343 344 347 344 338 339 341 337 339 340 331 325
322 321 319 319 319 320 320 319 319 320 321 321 322 320 323 324 326 328 327 329 331 333 334 335 337 340 341 340 342 339 337 347 347 345 346 345 345 341 339 342 344 341 336 326
321 320 320 320 320 320 320 320 320 321 322 322 323 322 324 324 325 329 330 331 332 333 335 336 338 341 342 342 344 345 343 347 347 346 343 346 346 345 344 340 341 342 339 334
321 319 319 320 320 320 320 320 321 322 322 323 323 323 322 324 329 330 331 331 331 332 332 333 335 337 339 341 343 345 348 349 348 347 346 343 346 346 345 345 344 344 343 338
321 320 317 316 320 320 321 322 324 324 322 322 323 323 324 329 329 330 331 330 330 328 329 331 331 332 334 337 340 341 343 345 349 350 348 345 346 345 346 346 347 347 347 344
323 320 317 315 317 320 321 323 324 325 325 323 323 322 329 327 328 328 328 327 325 324 328 327 325 325 329 331 333 336 337 340 342 345 347 347 347 347 347 347 347 347 347 346
321 320 314 313 315 316 320 320 319 323 323 324 324 329 328 327 327 326 327 322 321 321 325 323 320 320 325 328 330 331 330 332 334 337 341 345 346 346 346 345 345 346 344 341
318 320 314 314 313 315 316 317 321 320 324 327 324 325 326 329 327 324 322 321 320 318 318 318 317 318 321 322 324 325 328 328 328 330 334 337 340 343 345 344 344 343 342 342
318 321 319 316 317 318 318 317 318 320 322 325 326 327 328 325 323 322 320 317 318 318 318 318 318 317 317 317 318 323 326 328 327 328 328 331 336 336 343 341 342 343 342 342
318 320 322 321 316 314 316 319 320 322 321 320 321 323 322 318 316 315 315 315 315 315 315 316 316 317 318 318 318 318 324 326 326 325 326 328 330 330 337 341 339 341 341 340
315 317 319 317 314 313 315 316 316 318 320 322 322 320 315 314 314 314 314 314 314 313 313 314 314 314 315 315 318 318 318 318 323 325 324 325 326 328 326 335 336 336 339 338
310 314 315 317 316 314 313 313 313 315 318 319 319 318 317 314 314 313 314 314 314 314 313 313 313 313 313 314 314 316 316 316 317 318 323 323 325 326 328 329 334 337 338 337
312 313 313 312 311 311 311 311 312 312 313 314 314 313 312 312 313 313 312 312 312 312 312 312 312 312 312 312 314 314 314 315 315 315 318 323 322 322 323 326 329 331 332 333
313 314 313 312 311 311 311 311 311 311 311 311 311 310 311 312 312 312 312 312 312 311 311 311 311 310 311 311 311 312 313 314 314 314 317 322 322 320 319 321 322 326 328 330
314 313 313 312 312 311 312 311 311 311 311 309 310 311 313 312 312 312 312 311 311 310 310 310 310 310 310 310 310 311 312 312 313 313 316 321 321 318 317 317 318 319 316 324
313 313 312 312 312 311 310 310 310 309 310 310 311 312 312 312 312 311 310 310 310 309 308 308 308 309 309 309 309 309 310 312 312 312 314 319 320 319 317 316 317 312 312 311
311 313 312 312 311 310 309 309 310 311 311 311 311 312 312 311 310 310 311 310 308 307 308 308 308 308 308 308 308 308 309 310 312 312 313 314 318 320 317 316 315 308 307 308
309 311 312 312 310 311 312 311 310 311 311 313 311 312 311 311 312 312 309 308 308 308 308 308 308 307 307 308 308 308 308 309 310 312 313 313 315 318 319 317 316 309 307 314
309 309 312 312 312 312 311 311 310 311 315 312 311 311 310 311 310 308 308 308 308 307 306 305 305 306 306 306 307 308 308 308 309 310 312 313 313 315 319 318 316 308 307 307
311 312 312 312 313 313 311 312 312 314 312 312 311 310 309 308 308 308 308 308 307 307 306 306 306 306 306 306 307 307 308 308 309 309 310 312 313 313 316 318 315 308 307 307
314 313 315 313 313 312 311 312 312 311 311 310 309 309 308 308 308 308 308 307 307 307 306 306 306 306 306 307 308 308 307 309 309 309 309 311 313 313 316 317 317 312 309 310
311 310 314 313 312 311 310 311 311 309 309 309 309 308 308 308 308 307 307 306 307 306 306 306 306 307 307 308 308 308 309 308 309 308 308 310 312 313 315 316 316 313 313 313
307 309 309 310 310 309 309 308 309 309 309 309 309 308 308 307 307 307 306 307 306 306 306 307 307 307 308 308 309 309 308 309 308 308 308 309 311 313 314 315 314 312 310 308
307 309 311 312 309 309 310 310 309 309 309 309 308 308 308 307 306 306 306 306 305 306 306 307 307 308 308 308 308 309 309 310 308 309 309 309 310 312 313 314 312 311 311 309
Wind_Speed
17 12 14 16 15 14 6 8 8 6 3 8 13 13 12 12 14 15 8 3 3 7 8 11 12 12 10 8 14 18 20 24 28 30 31 29 32 29 25 26 29 34 29 25
9 17 16 7 8 10 11 12 12 6 7 9 8 12 12 11 5 2 1 4 7 10 12 13 14 13 14 9 8 15 19 22 26 28 28 29 28 26 29 35 26 23 29 27
18 2 7 11 12 13 13 13 10 10 8 10 8 13 11 9 10 7 7 6 8 11 15 15 16 15 15 14 11 11 17 20 23 26 26 30 35 36 35 36 37 33 28 29
17 17 6 11 14 14 15 12 12 10 10 11 13 11 15 15 9 6 7 8 10 12 13 15 16 16 16 15 15 13 12 17 19 22 24 27 28 35 37 35 30 28 27 30
14 14 14 13 13 12 14 9 13 13 12 13 13 9 8 12 11 4 7 10 12 13 15 16 18 17 17 17 15 12 7 10 14 17 21 21 24 23 26 31 34 33 29 28
16 4 3 5 1 8 4 9 11 11 12 15 17 13 12 12 8 5 7 10 11 13 15 18 19 19 19 19 18 14 8 6 8 11 16 18 20 19 20 21 18 19 22 26
15 8 3 2 10 8 11 12 10 12 12 14 15 16 5 7 9 7 7 8 10 11 13 17 20 21 23 24 22 19 17 8 3 7 11 13 16 16 19 21 20 18 17 18
16 11 5 3 5 8 13 14 12 15 13 13 8 10 6 8 8 9 8 7 9 11 13 15 18 19 20 23 24 22 20 15 13 9 8 10 12 12 13 18 18 19 17 22
6 6 4 4 6 3 8 11 7 10 9 10 6 7 6 7 7 7 7 6 8 10 10 12 16 18 19 19 20 21 21 19 18 13 10 9 12 14 14 17 20 25 27 26
2 3 5 2 3 4 3 2 4 4 7 13 11 8 2 12 9 7 5 4 6 7 8 11 14 16 16 16 17 18 18 19 18 17 15 12 8 11 15 20 19 25 22 22
6 5 6 5 8 5 6 7 5 4 8 6 7 2 7 6 5 0 3 6 7 8 8 10 11 12 14 16 17 17 17 15 16 17 17 16 11 9 7 12 15 16 18 18
2 4 10 13 7 7 11 12 14 10 15 11 12 5 5 6 4 3 7 7 9 10 10 10 13 14 14 15 17 16 16 15 14 14 16 16 14 11 9 8 11 17 18 23
1 4 7 9 8 7 10 9 13 16 13 17 11 2 7 6 4 4 4 6 7 9 12 13 13 13 15 15 14 13 13 14 14 14 14 14 15 13 11 7 9 12 20 21
3 6 9 10 7 6 4 7 8 10 11 15 16 8 9 7 2 1 2 4 6 7 9 12 13 15 15 15 14 12 11 12 13 13 12 12 12 13 12 12 10 12 14 15
4 11 6 10 7 8 10 9 9 11 11 10 9 7 6 7 2 3 3 5 8 10 10 11 12 13 15 15 15 14 14 13 14 15 12 10 9 10 11 11 10 11 12 14
3 7 6 11 4 9 11 12 12 13 12 12 11 13 11 2 6 7 6 7 11 12 12 13 15 17 16 16 18 18 17 16 15 14 11 11 10 8 9 10 9 9 9 10
7 8 7 11 2 9 13 15 17 17 13 10 11 3 4 5 6 8 10 13 15 15 14 17 20 19 19 19 18 18 18 18 16 14 12 11 10 9 7 9 9 9 9 10
7 10 7 8 6 11 1 3 8 10 9 7 6 4 1 4 9 14 15 11 11 15 19 21 20 20 20 20 20 20 19 19 18 17 14 12 14 11 8 8 9 10 11 12
11 10 4 4 8 11 16 4 4 6 7 6 8 3 5 5 12 16 4 7 15 20 22 23 21 21 23 23 22 21 21 21 20 19 17 15 14 14 11 8 7 9 11 12
13 11 8 7 4 4 6 3 1 2 10 7 2 1 3 10 10 9 18 19 21 23 24 25 26 26 24 24 23 23 23 22 22 20 20 18 16 15 15 11 9 10 11 12
10 11 12 9 5 7 4 4 2 7 3 6 2 7 11 11 14 20 22 23 24 24 26 25 25 23 25 25 23 23 22 23 22 22 21 20 18 16 17 14 10 10 11 12
6 7 7 10 5 8 5 6 6 4 1 4 10 12 13 14 17 20 22 24 27 26 25 22 23 22 20 19 20 21 22 22 22 22 23 21 18 17 19 16 12 11 11 12
4 4 3 6 3 2 5 3 1 4 9 12 13 12 12 16 20 22 23 24 23 24 21 18 17 17 18 17 18 22 26 22 22 23 22 22 19 18 20 16 13 10 10 9
5 4 4 3 5 5 8 9 9 11 11 12 13 15 17 18 20 21 24 22 21 19 19 18 17 18 21 19 20 20 21 20 21 22 22 22 22 20 19 16 14 11 8 8
9 1 7 8 11 10 10 5 5 8 11 15 16 15 14 14 20 20 22 20 20 20 21 20 21 21 22 21 21 22 22 18 20 20 20 20 22 20 18 18 15 12 12 10
11 9 8 5 5 4 3 5 9 14 16 16 15 17 15 15 19 21 20 19 20 22 22 23 21 21 21 20 21 22 17 16 17 17 17 18 20 20 12 12 11 11 10 9
Wind_Direction
200 218 219 218 223 265 261 259 254 235 237 252 247 253 245 228 225 232 214 218 335 348 4 1 2 3 342 264 237 232 234 233 229 232 231 229 215 211 209 222 254 239 240 239
181 228 235 232 227 233 233 237 240 255 230 222 225 242 234 222 191 139 187 40 359 346 352 358 356 353 357 341 255 242 236 236 236 233 231 227 227 226 223 213 243 245 242 242
226 150 232 219 209 222 228 236 230 255 163 236 257 240 213 137 145 115 66 40 16 -0 351 355 356 356 350 345 327 262 243 231 235 230 235 234 229 229 226 231 244 247 246 244
236 248 222 217 224 219 237 213 242 225 225 244 196 259 184 163 147 93 49 33 20 13 9 5 4 2 357 344 337 313 251 240 233 232 229 236 231 234 235 239 249 253 248 243
222 226 220 228 236 226 252 224 222 233 242 257 203 252 197 154 166 71 54 49 41 33 30 25 19 13 4 3 356 350 303 246 236 234 228 235 237 240 241 242 247 252 251 245
248 137 263 291 327 246 251 225 236 241 246 237 238 213 238 182 112 107 81 63 53 45 38 36 34 26 21 15 15 9 3 306 269 248 244 235 236 238 233 236 239 231 243 240
201 183 156 313 238 208 219 225 227 221 226 242 239 223 239 87 95 99 95 80 60 46 38 35 33 31 27 25 24 24 20 1 333 276 253 252 242 241 237 230 238 228 229 217
221 184 228 30 264 291 219 242 247 254 246 235 146 218 114 114 118 110 98 77 60 47 47 42 29 24 25 26 28 28 26 23 8 339 283 264 251 245 245 235 225 226 220 209
247 196 141 69 40 267 184 230 352 289 276 279 217 117 147 151 147 150 126 83 56 44 46 28 20 19 21 23 21 23 24 22 20 12 344 295 269 250 242 232 235 220 224 242
51 251 204 118 235 90 295 72 222 229 270 262 259 255 210 174 152 138 119 66 38 26 23 20 18 14 13 12 12 11 14 15 16 16 4 347 318 275 266 255 249 249 247 245
301 267 179 211 211 248 180 196 229 267 229 245 263 259 13 125 100 207 41 14 1 336 335 342 350 356 356 358 355 353 357 6 7 2 360 5 343 320 289 260 250 236 232 218
32 291 263 254 28 285 264 269 278 249 231 239 259 243 131 121 109 66 61 40 31 15 358 345 330 328 329 331 340 350 352 350 354 358 357 357 358 349 324 286 238 221 230 231
156 217 250 213 204 206 245 236 242 257 273 257 243 232 142 131 117 70 32 22 18 8 6 4 356 346 336 334 325 333 338 337 340 346 351 354 355 358 343 301 286 240 235 251
298 275 278 287 2 325 267 237 232 238 244 253 249 224 220 184 276 306 355 352 350 350 356 355 350 345 341 332 326 322 318 322 327 329 335 346 354 352 352 347 319 261 249 243
267 259 250 268 289 279 277 263 235 239 260 269 294 293 266 304 299 269 305 321 326 328 326 331 331 331 331 327 322 316 306 314 315 322 316 325 347 352 349 349 343 327 291 259
211 262 285 276 245 268 272 263 255 260 258 260 264 271 271 65 254 263 282 301 310 315 314 316 319 318 317 318 319 313 311 304 305 311 302 301 316 335 341 342 342 338 326 295
256 263 249 271 172 282 269 262 255 246 241 256 250 12 101 212 263 292 299 304 308 317 317 315 312 309 305 305 305 304 301 301 297 299 296 286 290 303 329 332 332 328 322 317
270 250 274 269 272 273 22 348 289 240 220 221 248 246 305 309 300 291 288 306 319 320 315 312 308 304 303 300 296 294 292 289 289 288 288 277 275 284 301 318 324 335 330 312
224 258 257 252 269 273 280 191 216 203 201 217 258 236 266 312 313 294 58 326 316 312 308 306 303 302 299 296 295 292 287 282 280 278 277 274 268 271 279 288 305 331 336 325
221 232 247 263 238 264 51 83 172 256 257 104 235 145 296 313 292 298 348 322 313 308 306 304 300 297 294 293 292 289 287 282 275 270 270 268 264 259 264 269 285 316 331 324
183 205 223 236 256 289 53 132 142 245 58 117 108 309 302 293 302 304 309 309 309 306 304 303 297 293 292 293 290 286 285 282 280 271 268 268 266 259 253 255 268 298 318 322
186 186 203 224 229 255 117 161 248 70 79 305 300 297 296 293 298 301 304 307 309 308 305 300 296 292 292 293 292 289 287 285 282 278 269 265 264 256 250 247 260 284 304 318
254 257 287 192 220 75 195 281 181 298 300 300 293 285 285 291 294 307 306 309 308 312 309 306 299 293 292 296 296 291 289 284 281 278 272 264 260 253 247 239 249 270 291 310
209 240 243 279 231 280 247 245 255 287 291 300 290 282 288 290 295 302 307 305 310 313 310 306 301 296 297 299 297 302 293 290 281 276 271 262 255 251 246 234 243 250 273 292
291 290 251 268 265 265 256 284 272 289 292 294 293 286 289 292 293 297 301 302 305 308 307 299 295 291 292 296 298 300 299 291 287 275 267 261 249 245 242 229 226 240 262 290
244 249 244 250 14 279 285 318 299 294 295 301 297 296 289 285 293 298 296 299 304 304 303 299 292 288 293 293 298 304 305 290 284 281 273 259 248 235 222 224 248 241 259 283